Weather History for Herat, Afghanistan

Change the Weather History Date:

Wednesday, March 19, 2014

  Actual Average Record
Temperature  
Mean Temperature 60 °F -  
Max Temperature 73 °F 71 °F - ()
Min Temperature 48 °F 45 °F - ()
Degree Days  
Heating Degree Days 4    
Growing Degree Days 10 (Base 50)    
Moisture  
Dew Point 43 °F    
Average Humidity 55    
Maximum Humidity 82    
Minimum Humidity 27    
Precipitation  
Precipitation 0.00 in 0.05 in - ()
Sea Level Pressure  
Sea Level Pressure 30.11 in    
Wind  
Wind Speed 3 mph ()    
Max Wind Speed 8 mph    
Max Gust Speed -    
Visibility 6.2 miles    
Events      
T = Trace of Precipitation, MM = Missing Value Source: Averaged Metar Reports

Daily Weather History Graph

Daily Weather History Graph

Search for Another Location

Airport:

Trip Planner

Search our weather history database for the weather conditions in past years. The results will help you decide how hot, cold, wet, or windy it might be!

Date:

Astronomy

Mar. 19, 2014 Rise Set
Actual Time 6:26 AM AFT 6:31 PM AFT
Civil Twilight 6:01 AM AFT 6:56 PM AFT
Nautical Twilight 5:32 AM AFT 7:25 PM AFT
Astronomical Twilight 5:03 AM AFT 7:55 PM AFT
Moon 9:15 PM AFT (3/19) 7:43 AM AFT (3/19)
Length of Visible Light 12h 54m
Length of Day
12h 04m
Waning Gibbous, 93% of the Moon is Illuminated
Mar 19
Waning Gibbous
Mar 24
Last Quarter
Mar 30
New
Apr 7
First Quarter
Apr 15
Full

Hourly Weather History & Observations

Time (AFT) Temp. Dew Point Humidity Pressure Visibility Wind Dir Wind Speed Gust Speed Precip Events Conditions
12:25 AM 55.4 °F 46.4 °F 72% 30.18 in - North 4.6 mph - N/A   Unknown
1:24 AM 51.8 °F 46.4 °F 82% 30.15 in - East 3.5 mph - N/A   Unknown
2:24 AM 51.8 °F 46.4 °F 82% 30.15 in - SE 1.2 mph - N/A   Unknown
3:24 AM 51.8 °F 44.6 °F 76% 30.12 in - North 2.3 mph - N/A   Unknown
4:25 AM 50.0 °F 44.6 °F 82% 30.12 in - SSW 1.2 mph - N/A   Unknown
5:24 AM 48.2 °F 42.8 °F 82% 30.12 in - SSE 4.6 mph - N/A   Unknown
6:25 AM 51.8 °F 42.8 °F 71% 30.12 in - South 6.9 mph - N/A   Unknown
7:24 AM 50.0 °F 42.8 °F 76% 30.15 in - SSE 2.3 mph - N/A   Clear
8:24 AM 53.6 °F 42.8 °F 67% 30.15 in - East 3.5 mph - N/A   Clear
9:24 AM 62.6 °F 42.8 °F 48% 30.15 in - Calm Calm - N/A   Clear
10:25 AM 66.2 °F 44.6 °F 46% 30.12 in - NNE 4.6 mph - N/A   Clear
11:24 AM 69.8 °F 42.8 °F 38% 30.12 in - ENE 8.1 mph - N/A   Clear
12:24 PM 69.8 °F 39.2 °F 33% 30.09 in - NE 6.9 mph - N/A   Clear
1:24 PM 69.8 °F 39.2 °F 33% 30.06 in - NNE 6.9 mph - N/A   Clear
2:24 PM 71.6 °F 39.2 °F 31% 30.06 in 6.2 mi North 5.8 mph - N/A   Scattered Clouds
3:25 PM 73.4 °F 37.4 °F 27% 30.04 in - NNW 5.8 mph - N/A   Clear
4:25 PM 71.6 °F 39.2 °F 31% 30.04 in 6.2 mi North 4.6 mph - N/A   Scattered Clouds
5:24 PM 69.8 °F 42.8 °F 38% 30.04 in 6.2 mi ENE 3.5 mph - N/A   Mostly Cloudy
6:24 PM 68.0 °F 39.2 °F 35% 30.04 in 6.2 mi SSE 2.3 mph - N/A   Mostly Cloudy
7:24 PM 66.2 °F 46.4 °F 49% 30.06 in 6.2 mi SSW 2.3 mph - N/A   Mostly Cloudy
8:24 PM 64.4 °F 46.4 °F 52% 30.09 in 6.2 mi Calm Calm - N/A   Scattered Clouds
9:25 PM 60.8 °F 42.8 °F 52% 30.12 in 6.2 mi WSW 2.3 mph - N/A   Scattered Clouds
10:24 PM 59.0 °F 44.6 °F 59% 30.12 in - West 4.6 mph - N/A   Clear
11:25 PM 57.2 °F 42.8 °F 59% 30.12 in - WSW 2.3 mph - N/A   Clear